Weather History for Blair, NE

Change the Weather History Date:

Sunday, May 19, 2013

  Actual Average (KOMA) Record (KOMA)
Temperature  
Mean Temperature 66 °F 63 °F  
Max Temperature 74 °F 75 °F 94 °F (1934)
Min Temperature 59 °F 52 °F 36 °F (1981)
Degree Days  
Heating Degree Days 0 4  
Month to date heating degree days 114  
Since 1 July heating degree days 6116  
Cooling Degree Days 2 2  
Month to date cooling degree days 27  
Year to date cooling degree days 43  
Growing Degree Days 16 (Base 50)    
Moisture  
Dew Point 60 °F    
Average Humidity 84    
Maximum Humidity 96    
Minimum Humidity 69    
Precipitation  
Precipitation 1.09 in 0.17 in 1.72 in (1882)
Month to date precipitation 2.86  
Year to date precipitation 9.38  
Snow  
Snow 0.00 in 0.00 in - ()
Month to date snowfall 0.1  
Since 1 July snowfall 26.5  
Snow Depth -    
Sea Level Pressure  
Sea Level Pressure 29.64 in    
Wind  
Wind Speed 9 mph (SE)    
Max Wind Speed 21 mph    
Max Gust Speed 31 mph    
Visibility 9 miles    
Events Rain , Thunderstorm    
T = Trace of Precipitation, MM = Missing Value Source: NWS Daily Summary

Daily Weather History Graph

Daily Weather History Graph

Search for Another Location

Airport:

Trip Planner

Search our weather history database for the weather conditions in past years. The results will help you decide how hot, cold, wet, or windy it might be!

Date:

Astronomy

May. 19, 2013 Rise Set
Actual Time 6:01 AM CDT 8:40 PM CDT
Civil Twilight 5:29 AM CDT 9:12 PM CDT
Nautical Twilight 4:49 AM CDT 9:53 PM CDT
Astronomical Twilight 4:04 AM CDT 10:38 PM CDT
Moon 2:42 PM CDT (5/19) 2:29 AM CDT (5/19)
Length of Visible Light 15h 43m
Length of Day
14h 39m
Waxing Gibbous, 65% of the Moon is Illuminated
May 19
Waxing Gibbous
May 24
Full
May 31
Last Quarter
Jun 8
New
Jun 16
First Quarter

Hourly Weather History & Observations

Time (CDT) Temp. Dew Point Humidity Pressure Visibility Wind Dir Wind Speed Gust Speed Precip Events Conditions
12:15 AM 64.0 °F 60.8 °F 89% 29.76 in 4.0 mi WSW 5.8 mph - 0.14 in Rain , Thunderstorm Thunderstorms and Rain
12:35 AM 64.2 °F 61.3 °F 90% 29.78 in 7.0 mi SSW 20.7 mph - 0.34 in Rain , Thunderstorm Thunderstorms and Rain
12:55 AM 63.0 °F 60.8 °F 93% 29.73 in 3.0 mi WSW 11.5 mph 23.0 mph 0.80 in Rain , Thunderstorm Light Thunderstorms and Rain
1:15 AM 63.5 °F 60.8 °F 91% 29.74 in 7.0 mi Calm Calm - 0.03 in Rain , Thunderstorm Heavy Thunderstorms and Rain
1:35 AM 63.5 °F 60.8 °F 91% 29.77 in 10.0 mi South 4.6 mph 12.7 mph 0.05 in Rain , Thunderstorm Thunderstorms and Rain
1:55 AM 63.5 °F 60.6 °F 90% 29.78 in 10.0 mi SSE 8.1 mph - 0.06 in Rain , Thunderstorm Rain
2:15 AM 63.5 °F 60.8 °F 91% 29.78 in 10.0 mi ESE 13.8 mph - 0.02 in Rain , Thunderstorm Light Thunderstorms and Rain
2:35 AM 63.1 °F 60.8 °F 92% 29.69 in 10.0 mi North 4.6 mph - 0.03 in Rain , Thunderstorm Light Thunderstorms and Rain
2:55 AM 62.8 °F 60.8 °F 93% 29.69 in 10.0 mi West 4.6 mph - 0.04 in Rain Light Rain
3:15 AM 63.0 °F 61.0 °F 93% 29.73 in 10.0 mi SSW 6.9 mph - N/A   Scattered Clouds
3:35 AM 63.0 °F 60.8 °F 93% 29.71 in 10.0 mi South 3.5 mph - N/A   Clear
3:55 AM 62.6 °F 60.1 °F 91% 29.64 in 10.0 mi NW 12.7 mph - N/A   Clear
4:15 AM 62.6 °F 59.9 °F 91% 29.65 in 10.0 mi ESE 11.5 mph - N/A   Clear
4:35 AM 62.1 °F 59.9 °F 93% 29.66 in 10.0 mi SE 8.1 mph - N/A   Clear
4:55 AM 62.2 °F 60.1 °F 93% 29.67 in 10.0 mi SE 11.5 mph - N/A   Clear
5:15 AM 62.2 °F 60.4 °F 94% 29.67 in 7.0 mi SSE 6.9 mph - N/A   Clear
5:35 AM 61.7 °F 59.9 °F 94% 29.68 in 4.0 mi SSW 8.1 mph - N/A   Scattered Clouds
5:55 AM 61.3 °F 59.9 °F 95% 29.67 in 5.0 mi South 4.6 mph - N/A   Scattered Clouds
6:15 AM 60.8 °F 59.0 °F 94% 29.66 in 3.0 mi SSW 5.8 mph - N/A   Clear
6:35 AM 60.1 °F 58.5 °F 94% 29.66 in 2.5 mi Calm Calm - N/A   Clear
7:15 AM 61.2 °F 59.9 °F 96% 29.66 in 3.0 mi NNE 4.6 mph - N/A   Clear
7:35 AM 61.9 °F 60.4 °F 95% 29.64 in 3.0 mi North 4.6 mph - N/A   Clear
7:55 AM 62.6 °F 61.0 °F 94% 29.69 in 5.0 mi SSE 3.5 mph - N/A   Clear
8:15 AM 63.5 °F 61.0 °F 91% 29.69 in 10.0 mi SSE 5.8 mph - N/A   Mostly Cloudy
8:35 AM 63.9 °F 61.0 °F 90% 29.70 in 10.0 mi South 9.2 mph - N/A   Overcast
8:55 AM 63.5 °F 60.4 °F 90% 29.69 in 10.0 mi SSE 8.1 mph - N/A Rain Light Rain
9:15 AM 63.5 °F 60.3 °F 89% 29.68 in 10.0 mi South 6.9 mph - N/A Rain Rain
9:55 AM 63.9 °F 60.8 °F 90% 29.66 in 10.0 mi ESE 5.8 mph - 0.01 in Rain Light Rain
10:15 AM 63.7 °F 61.2 °F 91% 29.65 in 10.0 mi ENE 6.9 mph - N/A Rain , Thunderstorm Light Thunderstorms and Rain
10:35 AM 63.7 °F 61.0 °F 91% 29.66 in 10.0 mi East 5.8 mph - N/A Rain Light Rain
10:55 AM 63.7 °F 61.3 °F 92% 29.67 in 7.0 mi East 6.9 mph - N/A Rain Light Rain
11:15 AM 64.6 °F 62.4 °F 93% 29.68 in 7.0 mi East 6.9 mph - N/A   Light Drizzle
11:35 AM 65.5 °F 62.6 °F 90% 29.67 in 7.0 mi East 8.1 mph - N/A   Overcast
11:55 AM 66.4 °F 63.0 °F 89% 29.67 in 7.0 mi SE 8.1 mph - N/A   Overcast
12:15 PM 67.6 °F 62.8 °F 84% 29.67 in 10.0 mi SE 9.2 mph - N/A   Mostly Cloudy
12:35 PM 68.5 °F 63.3 °F 83% 29.66 in 10.0 mi SSE 10.4 mph - N/A   Scattered Clouds
12:55 PM 70.3 °F 63.7 °F 79% 29.66 in 10.0 mi SSE 12.7 mph - N/A   Scattered Clouds
1:15 PM 71.1 °F 63.3 °F 76% 29.65 in 10.0 mi SSE 13.8 mph 19.6 mph N/A   Scattered Clouds
1:35 PM 72.0 °F 63.1 °F 74% 29.65 in 10.0 mi SSE 13.8 mph 17.3 mph N/A   Mostly Cloudy
2:15 PM 74.1 °F 63.5 °F 69% 29.64 in 10.0 mi SSE 11.5 mph - N/A   Mostly Cloudy
2:35 PM 74.3 °F 63.9 °F 70% 29.64 in 10.0 mi South 11.5 mph 16.1 mph N/A Thunderstorm Mostly Cloudy
3:15 PM 72.9 °F 62.2 °F 69% 29.67 in 10.0 mi SW 9.2 mph - N/A Thunderstorm Overcast
3:35 PM 69.3 °F 63.3 °F 81% 29.65 in 2.5 mi ENE 5.8 mph - 0.16 in Rain , Thunderstorm Heavy Thunderstorms and Rain
3:55 PM 66.4 °F 59.4 °F 78% 29.61 in 10.0 mi NE 15.0 mph 20.7 mph 0.17 in Rain , Thunderstorm Rain
4:15 PM 64.6 °F 57.0 °F 76% 29.59 in 10.0 mi NE 8.1 mph - N/A Thunderstorm Mostly Cloudy
4:35 PM 66.0 °F 58.6 °F 77% 29.60 in 10.0 mi NE 12.7 mph - N/A Thunderstorm Scattered Clouds
4:55 PM 68.5 °F 58.5 °F 70% 29.59 in 10.0 mi NNE 5.8 mph - N/A Thunderstorm Clear
5:15 PM 67.5 °F 59.9 °F 77% 29.55 in 10.0 mi NNE 6.9 mph - N/A   Clear
5:35 PM 67.1 °F 60.8 °F 80% 29.54 in 10.0 mi ENE 8.1 mph - N/A Thunderstorm Clear
5:55 PM 69.6 °F 62.1 °F 77% 29.54 in 10.0 mi East 6.9 mph - N/A   Clear
6:15 PM 70.5 °F 61.9 °F 74% 29.53 in 10.0 mi East 6.9 mph - N/A   Clear
6:35 PM 68.9 °F 60.6 °F 75% 29.55 in 10.0 mi ESE 5.8 mph - N/A   Clear
6:55 PM 68.4 °F 59.5 °F 73% 29.54 in 10.0 mi ESE 9.2 mph - N/A   Clear
7:15 PM 68.0 °F 59.7 °F 75% 29.54 in 10.0 mi SE 8.1 mph - N/A   Clear
7:35 PM 68.0 °F 59.5 °F 74% 29.55 in 10.0 mi ESE 17.3 mph 24.2 mph N/A   Mostly Cloudy
7:55 PM 66.9 °F 58.6 °F 75% 29.53 in 10.0 mi SSE 16.1 mph 19.6 mph N/A Rain Light Rain
8:15 PM 65.3 °F 57.6 °F 76% 29.52 in 10.0 mi South 15.0 mph 20.7 mph N/A   Scattered Clouds
8:35 PM 64.0 °F 56.8 °F 77% 29.52 in 10.0 mi South 13.8 mph 31.1 mph N/A   Clear
8:55 PM 63.1 °F 56.3 °F 78% 29.53 in 10.0 mi South 15.0 mph - N/A   Clear
9:15 PM 63.1 °F 55.9 °F 77% 29.54 in 10.0 mi SW 10.4 mph - N/A   Clear
9:35 PM 62.8 °F 53.2 °F 71% 29.60 in 10.0 mi West 18.4 mph 27.6 mph 0.01 in   Mostly Cloudy
9:55 PM 62.1 °F 52.7 °F 71% 29.62 in 10.0 mi West 13.8 mph 23.0 mph 0.01 in   Overcast
10:15 PM 60.6 °F 53.8 °F 78% 29.62 in 10.0 mi West 9.2 mph - N/A   Overcast
10:35 PM 59.9 °F 54.5 °F 82% 29.62 in 10.0 mi SSW 5.8 mph - N/A   Light Drizzle
11:15 PM 59.9 °F 54.5 °F 82% 29.57 in 10.0 mi SE 10.4 mph - N/A   Scattered Clouds
11:35 PM 61.0 °F 53.8 °F 77% 29.54 in 10.0 mi SE 9.2 mph - N/A   Mostly Cloudy
11:55 PM 60.8 °F 53.4 °F 77% 29.51 in 10.0 mi SE 4.6 mph - N/A   Scattered Clouds